QFA2 EGLL-WSSS

Flight info

Callsign QFA2
Flight time N/A
Altitude 33000
Route DET L6 DVR L9 KONAN DCT KOK DCT REMBA/N0494F350 DCT MATUG DCT GUBAX DCT BOREP DCT ENITA DCT TOVKA DCT ERGOM DCT BUDOP DCT DINRO DCT UDROS UM859 KARDE UL851 TBN UM11 REBLO M11 LUSAL N701 LARGI B701 KRS/N0494F370 A240 INRAK B449 DOLOS B475 NINOP A909 LEMOD N644 DI A466 DPN L759 LAMBU/N0494F390 L759 PUT B579 VPL Y503 RINBA Y507 MAKNA Y511 TOPOR A464 ARAMA DCT TEBUN TEBUN1A
Aircraft A388/J-SADE2E3FGHIJ4J5M1P2RWYZ/LB1D1

Departure

Time 2026-05-06 16:30
Airport London Heathrow Airport (EGLL)

Arrival

Time N/A
Airport Singapore Changi Airport (WSSS)
Time Latitude Longitude Altitude Speed Heading
2026-05-06 16:05 51.46834 -0.45445 91 ft 0 kts 359°
2026-05-06 16:18 51.46833 -0.45445 95 ft 2 kts 359°
2026-05-06 16:18 51.46807 -0.45445 91 ft 4 kts 359°
2026-05-06 16:18 51.46784 -0.45444 91 ft 2 kts 360°
2026-05-06 16:18 51.46763 -0.45440 93 ft 4 kts 334°
2026-05-06 16:19 51.46752 -0.45423 94 ft 4 kts 289°
2026-05-06 16:19 51.46750 -0.45389 93 ft 4 kts 269°
2026-05-06 16:19 51.46750 -0.45347 92 ft 3 kts 269°
2026-05-06 16:19 51.46750 -0.45342 92 ft 0 kts 269°
2026-05-06 16:22 51.46750 -0.45348 92 ft 2 kts 269°
2026-05-06 16:22 51.46750 -0.45390 93 ft 5 kts 269°
2026-05-06 16:23 51.46750 -0.45455 92 ft 6 kts 269°
2026-05-06 16:23 51.46749 -0.45532 94 ft 8 kts 269°
2026-05-06 16:23 51.46749 -0.45630 95 ft 10 kts 270°
2026-05-06 16:23 51.46748 -0.45758 94 ft 13 kts 269°
2026-05-06 16:24 51.46748 -0.45909 94 ft 14 kts 269°
2026-05-06 16:24 51.46748 -0.46080 94 ft 16 kts 270°
2026-05-06 16:24 51.46748 -0.46267 94 ft 18 kts 269°
2026-05-06 16:24 51.46749 -0.46470 94 ft 19 kts 271°
2026-05-06 16:25 51.46748 -0.46684 94 ft 20 kts 269°
2026-05-06 16:25 51.46746 -0.46901 95 ft 19 kts 270°
2026-05-06 16:25 51.46747 -0.47112 95 ft 19 kts 270°
2026-05-06 16:25 51.46745 -0.47319 94 ft 18 kts 269°
2026-05-06 16:26 51.46745 -0.47521 94 ft 18 kts 270°
2026-05-06 16:26 51.46745 -0.47724 94 ft 18 kts 269°
2026-05-06 16:26 51.46744 -0.47924 91 ft 18 kts 270°
2026-05-06 16:26 51.46743 -0.48122 91 ft 18 kts 270°
2026-05-06 16:27 51.46743 -0.48320 91 ft 18 kts 270°
2026-05-06 16:27 51.46742 -0.48510 92 ft 16 kts 270°
2026-05-06 16:27 51.46742 -0.48633 94 ft 9 kts 270°
2026-05-06 16:27 51.46733 -0.48719 92 ft 7 kts 232°
2026-05-06 16:28 51.46692 -0.48748 96 ft 7 kts 181°
2026-05-06 16:28 51.46631 -0.48754 94 ft 10 kts 192°
2026-05-06 16:28 51.46557 -0.48789 94 ft 12 kts 188°
2026-05-06 16:28 51.46494 -0.48757 95 ft 7 kts 129°
2026-05-06 16:29 51.46478 -0.48704 95 ft 3 kts 100°
2026-05-06 16:29 51.46477 -0.48658 94 ft 5 kts 89°
2026-05-06 16:29 51.46478 -0.48507 92 ft 34 kts 89°
2026-05-06 16:29 51.46479 -0.47718 91 ft 105 kts 89°
2026-05-06 16:30 51.46489 -0.46276 93 ft 152 kts 88°
2026-05-06 16:30 51.46494 -0.45069 115 ft 171 kts 89°
2026-05-06 16:30 51.46475 -0.42500 668 ft 172 kts 86°
2026-05-06 16:30 51.46200 -0.40662 1051 ft 180 kts 119°
2026-05-06 16:31 51.45438 -0.39005 1372 ft 189 kts 123°
2026-05-06 16:31 51.44631 -0.37260 1612 ft 197 kts 122°
2026-05-06 16:31 51.43821 -0.35450 1764 ft 204 kts 118°
2026-05-06 16:31 51.43316 -0.33325 1870 ft 209 kts 102°
2026-05-06 16:32 51.42987 -0.30998 1942 ft 218 kts 101°
2026-05-06 16:32 51.42679 -0.28504 2063 ft 238 kts 97°
2026-05-06 16:32 51.42368 -0.25792 2347 ft 253 kts 97°
2026-05-06 16:32 51.42029 -0.22996 2872 ft 257 kts 99°
2026-05-06 16:33 51.41664 -0.20178 3515 ft 260 kts 100°
2026-05-06 16:33 51.41276 -0.17318 4131 ft 265 kts 99°
2026-05-06 16:33 51.40878 -0.14422 4841 ft 265 kts 100°
2026-05-06 16:34 51.40066 -0.08581 6050 ft 273 kts 100°
2026-05-06 16:34 51.39653 -0.05597 6650 ft 276 kts 101°
2026-05-06 16:34 51.39232 -0.02556 7191 ft 281 kts 101°
2026-05-06 16:34 51.38805 0.00518 7827 ft 283 kts 100°
2026-05-06 16:35 51.38373 0.03620 8462 ft 285 kts 101°
2026-05-06 16:35 51.37942 0.06714 9047 ft 289 kts 101°
2026-05-06 16:35 51.37496 0.09895 9550 ft 297 kts 101°
2026-05-06 16:35 51.37042 0.13134 10105 ft 300 kts 101°
2026-05-06 16:36 51.36574 0.16475 10354 ft 315 kts 101°
2026-05-06 16:36 51.36081 0.19983 10513 ft 330 kts 101°
2026-05-06 16:36 51.35564 0.23647 10688 ft 344 kts 101°
2026-05-06 16:36 51.35033 0.27398 10853 ft 353 kts 101°
2026-05-06 16:37 51.34488 0.31241 11274 ft 354 kts 101°
2026-05-06 16:37 51.33938 0.35096 11838 ft 355 kts 102°
2026-05-06 16:37 51.33392 0.38918 12336 ft 357 kts 102°
2026-05-06 16:37 51.32834 0.42825 12797 ft 362 kts 102°
2026-05-06 16:38 51.32271 0.46751 13346 ft 363 kts 102°
2026-05-06 16:38 51.31706 0.50687 13907 ft 364 kts 102°
2026-05-06 16:38 51.31132 0.54673 14278 ft 370 kts 102°
2026-05-06 16:38 51.30558 0.58649 14717 ft 371 kts 102°
2026-05-06 16:39 51.29881 0.62646 15196 ft 373 kts 106°
2026-05-06 16:39 51.29144 0.66631 15633 ft 376 kts 106°
2026-05-06 16:39 51.28402 0.70677 16007 ft 380 kts 106°
2026-05-06 16:39 51.27670 0.74678 16522 ft 380 kts 106°
2026-05-06 16:40 51.26928 0.78726 16958 ft 382 kts 106°
2026-05-06 16:40 51.26175 0.82826 17344 ft 385 kts 106°
2026-05-06 16:40 51.25424 0.86906 17707 ft 390 kts 107°
2026-05-06 16:40 51.24658 0.91054 18204 ft 390 kts 107°
2026-05-06 16:41 51.23887 0.95217 18601 ft 391 kts 107°
2026-05-06 16:41 51.23109 0.99412 18929 ft 394 kts 107°
2026-05-06 16:41 51.22326 1.03623 19253 ft 397 kts 107°
2026-05-06 16:41 51.21538 1.07852 19646 ft 398 kts 107°
2026-05-06 16:42 51.20758 1.12025 20007 ft 400 kts 107°
2026-05-06 16:42 51.19958 1.16300 20320 ft 403 kts 107°
2026-05-06 16:42 51.19153 1.20588 20702 ft 404 kts 107°
2026-05-06 16:42 51.18355 1.24833 21032 ft 406 kts 107°
2026-05-06 16:43 51.17541 1.29148 21350 ft 408 kts 107°
2026-05-06 16:43 51.16734 1.33443 21657 ft 411 kts 106°
2026-05-06 16:43 51.16165 1.37907 22012 ft 413 kts 97°
2026-05-06 16:43 51.15940 1.42479 22337 ft 415 kts 94°
2026-05-06 16:44 51.15737 1.47090 22610 ft 418 kts 95°
2026-05-06 16:44 51.15518 1.51716 22942 ft 420 kts 95°
2026-05-06 16:44 51.15290 1.56372 23270 ft 422 kts 95°
2026-05-06 16:44 51.15059 1.61071 23563 ft 424 kts 95°
2026-05-06 16:45 51.14827 1.65761 23841 ft 426 kts 95°
2026-05-06 16:45 51.14592 1.70473 24141 ft 427 kts 95°
2026-05-06 16:45 51.14358 1.75138 24416 ft 428 kts 95°
2026-05-06 16:45 51.14116 1.79932 24711 ft 430 kts 95°
2026-05-06 16:46 51.13877 1.84630 25001 ft 431 kts 95°
2026-05-06 16:46 51.13632 1.89406 25305 ft 433 kts 95°
2026-05-06 16:46 51.13386 1.94146 25697 ft 432 kts 95°
2026-05-06 16:46 51.13139 1.98879 25876 ft 437 kts 95°
2026-05-06 16:47 51.12885 2.03716 26188 ft 438 kts 95°
2026-05-06 16:47 51.12632 2.08487 26576 ft 438 kts 95°
2026-05-06 16:47 51.12373 2.13335 26794 ft 443 kts 96°
2026-05-06 16:47 51.12105 2.18282 27215 ft 442 kts 96°